User: anonymous
Location: Columbia
(38.9520°N, 92.3340°W)
Time: 22:20:58
(UTC-05:00)
Language:

SL-08 RB Rocket - Orbit

View from above orbital plane
View from above orbital plane
View from above satellite
View from above satellite

Ground track
Ground track

The orbit data is extracted from the following two-line orbital elements,

1 26387U 00033D   14113.82037635  .00000853  00000-0  15942-3 0  4834
2 26387 098.1099 182.0823 0027222 028.1977 108.1744 14.67221438739111
Epoch (UTC): 23 April 2014 19:41:20
Eccentricity: 0.0027222
inclination: 98.1099°
perigee height: 651 km
apogee height: 689 km
right ascension of ascending node: 182.0823°
argument of perigee: 28.1977°
revolutions per day: 14.67221438
mean anomaly at epoch: 108.1744°
orbit number at epoch: 73911

The dashed part of the orbit path shows where the satellite is in the earth's shadow,  

DLR